Norwood, MA

4:37 PM EDT on April 24, 2018 (GMT -0400)
Norwood Memorial

Weather History for KOWD - October, 2011

Change the Weather History Date:

Monday, October 3, 2011

  Actual Average Record
Temperature  
Mean Temperature 60 °F -  
Max Temperature 69 °F 64 °F 81 °F (2000)
Min Temperature 53 °F 39 °F 30 °F (2003)
Degree Days  
Heating Degree Days 6    
Growing Degree Days 10 (Base 50)    
Moisture  
Dew Point 53 °F    
Average Humidity 87    
Maximum Humidity 100    
Minimum Humidity 47    
Precipitation  
Precipitation 0.02 in - - ()
Sea Level Pressure  
Sea Level Pressure 29.99 in    
Wind  
Wind Speed 1 mph (WSW)    
Max Wind Speed 8 mph    
Max Gust Speed -    
Visibility 6 miles    
Events Fog , Rain    
Averages and records for this station are not official NWS values.
T = Trace of Precipitation, MM = Missing Value Source: NWS Daily Summary

Daily Weather History Graph

Daily Weather History Graph

Search for Another Location

Airport or City:

Astronomy

Oct. 03, 2011 Rise Set
Actual Time 6:43 AM EDT 6:23 PM EDT
Civil Twilight 6:15 AM EDT 6:51 PM EDT
Nautical Twilight 5:43 AM EDT 7:23 PM EDT
Astronomical Twilight 5:10 AM EDT 7:56 PM EDT
Moon 1:44 PM EDT (10/3) 11:17 PM EDT (10/3)
Length of Visible Light 12h 35m
Length of Day
11h 39m
Waxing Crescent, 45% of the Moon is Illuminated
Oct 3
Waxing Crescent
Oct 3
First Quarter
Oct 11
Full
Oct 19
Last Quarter
Oct 26
New

Hourly Weather History & Observations

Time (EDT) Temp. Dew Point Humidity Pressure Visibility Wind Dir Wind Speed Gust Speed Precip Events Conditions
12:03 AM 59.0 °F 55.4 °F 88% 29.91 in 10.0 mi North 3.5 mph - N/A   Scattered Clouds
1:45 AM 55.4 °F 53.6 °F 94% 29.93 in 2.5 mi Calm Calm - N/A   Clear
1:51 AM 55.4 °F 53.6 °F 94% 29.93 in 0.8 mi Calm Calm - N/A   Mist
1:52 AM 55.0 °F 53.1 °F 93% 29.93 in 0.8 mi Calm Calm - N/A   Mist
2:08 AM 55.4 °F 51.8 °F 88% 29.93 in 1.0 mi Calm Calm - N/A   Scattered Clouds
2:14 AM 53.6 °F 51.8 °F 94% 29.93 in 0.8 mi Calm Calm - N/A   Mostly Cloudy
2:34 AM 53.6 °F 51.8 °F 94% 29.93 in 0.2 mi Calm Calm - N/A Fog Fog
3:25 AM 53.6 °F 51.8 °F 94% 29.94 in 0.8 mi Calm Calm - N/A   Mostly Cloudy
3:30 AM 53.6 °F 51.8 °F 94% 29.94 in 2.0 mi Calm Calm - N/A   Scattered Clouds
3:37 AM 53.6 °F 51.8 °F 94% 29.94 in 2.5 mi Calm Calm - N/A   Mostly Cloudy
3:42 AM 53.6 °F 51.8 °F 94% 29.94 in 0.8 mi Calm Calm - N/A   Mostly Cloudy
3:53 AM 55.0 °F 53.1 °F 93% 29.94 in 0.5 mi Calm Calm - N/A Fog Fog
4:53 AM 55.0 °F 53.1 °F 93% 29.95 in 0.5 mi Calm Calm - 0.01 in Fog Fog
5:06 AM 55.4 °F 53.6 °F 94% 29.96 in 1.8 mi Calm Calm - N/A   Overcast
5:53 AM 55.0 °F 53.1 °F 93% 29.97 in 1.0 mi Calm Calm - N/A   Overcast
6:15 AM 55.4 °F 53.6 °F 94% 29.98 in 3.0 mi Calm Calm - N/A   Overcast
6:26 AM 55.4 °F 53.6 °F 94% 29.98 in 9.0 mi WSW 4.6 mph - N/A   Overcast
6:49 AM 55.4 °F 55.4 °F 100% 30.00 in 10.0 mi Calm Calm - N/A   Overcast
7:04 AM 55.4 °F 53.6 °F 94% 30.01 in 10.0 mi Calm Calm - N/A   Overcast
7:11 AM 55.4 °F 53.6 °F 94% 30.01 in 10.0 mi Calm Calm - N/A   Overcast
7:41 AM 57.2 °F 53.6 °F 88% 30.01 in 10.0 mi Calm Calm - N/A   Overcast
7:53 AM 57.9 °F 55.0 °F 90% 30.01 in 10.0 mi Calm Calm - N/A   Overcast
8:43 AM 60.8 °F 57.2 °F 88% 30.03 in 3.0 mi SSW 3.5 mph - N/A   Overcast
8:53 AM 61.0 °F 55.0 °F 81% 30.04 in 3.0 mi WSW 5.8 mph - N/A   Haze
9:53 AM 62.1 °F 51.1 °F 67% 30.06 in 10.0 mi WSW 8.1 mph - N/A   Overcast
3:53 PM 66.9 °F 46.0 °F 47% 30.04 in 10.0 mi West 5.8 mph - N/A   Overcast
4:53 PM 64.9 °F 46.0 °F 50% 30.03 in 10.0 mi West 6.9 mph - N/A   Partly Cloudy
5:53 PM 63.0 °F 50.0 °F 63% 30.04 in 10.0 mi Calm Calm - N/A   Clear
6:53 PM 60.1 °F 53.1 °F 78% 30.05 in 10.0 mi South 4.6 mph - N/A   Scattered Clouds
7:53 PM 59.0 °F 52.0 °F 78% 30.06 in 10.0 mi SE 4.6 mph - 0.00 in Rain Light Rain
9:53 PM 57.9 °F 54.0 °F 87% 30.04 in 10.0 mi Calm Calm - 0.00 in   Overcast
10:53 PM 57.0 °F 55.0 °F 93% 30.04 in 10.0 mi Calm Calm - 0.01 in   Overcast
11:53 PM 57.9 °F 54.0 °F 87% 30.03 in 10.0 mi Calm Calm - N/A   Overcast